Weather History for KHEI - May, 2009

Change the Weather History Date:

Wednesday, May 13, 2009

  Actual Average Record
Temperature  
Mean Temperature 42 °F -  
Max Temperature 48 °F 65 °F 91 °F (2013)
Min Temperature 37 °F 38 °F 16 °F (2004)
Degree Days  
Heating Degree Days 24    
Cooling Degree Days 0 0  
Month to date cooling degree days 0  
Year to date cooling degree days 0  
Moisture  
Dew Point 33 °F    
Average Humidity 73    
Maximum Humidity 90    
Minimum Humidity 53    
Precipitation  
Precipitation 0.01 in 0.08 in 0.30 in (2003)
Month to date precipitation 0.96  
Year to date precipitation 3.92  
Sea Level Pressure  
Sea Level Pressure 29.78 in    
Wind  
Wind Speed 23 mph (WNW)    
Max Wind Speed 40 mph    
Max Gust Speed 52 mph    
Visibility 10 miles    
Events Rain    
T = Trace of Precipitation, MM = Missing Value Source: NWS Daily Summary

Daily Weather History Graph

Daily Weather History Graph

Search for Another Location

Airport or City:

Trip Planner

Search our weather history database for the weather conditions in past years. The results will help you decide how hot, cold, wet, or windy it might be!

Date:

Astronomy

May. 13, 2009 Rise Set
Actual Time 5:20 AM MDT 8:14 PM MDT
Civil Twilight 4:45 AM MDT 8:49 PM MDT
Nautical Twilight 4:01 AM MDT 9:33 PM MDT
Astronomical Twilight 3:08 AM MDT 10:27 PM MDT
Moon 12:00 AM MDT (5/13) 8:26 AM MDT (5/13)
Length of Visible Light 16h 03m
Length of Day
14h 53m
Waning Gibbous, 81% of the Moon is Illuminated
May 13
Waning Gibbous
May 17
Last Quarter
May 24
New
May 30
First Quarter
Jun 7
Full

Hourly Weather History & Observations

Time (MDT) Temp. Windchill Dew Point Humidity Pressure Visibility Wind Dir Wind Speed Gust Speed Precip Events Conditions
12:53 AM 46.0 °F 40.2 °F 43.0 °F 89% 29.52 in 10.0 mi West 12.7 mph - N/A   Mostly Cloudy
1:53 AM 45.0 °F 39.7 °F 42.1 °F 90% 29.53 in 10.0 mi West 10.4 mph - N/A   Partly Cloudy
2:53 AM 45.0 °F 37.1 °F 39.0 °F 80% 29.54 in 10.0 mi West 19.6 mph - N/A   Clear
3:53 AM 43.0 °F 34.8 °F 37.9 °F 82% 29.57 in 10.0 mi West 18.4 mph - N/A   Clear
4:53 AM 43.0 °F 34.5 °F 34.0 °F 71% 29.59 in 10.0 mi West 19.6 mph 27.6 mph N/A   Scattered Clouds
5:53 AM 41.0 °F 31.6 °F 34.0 °F 76% 29.62 in 10.0 mi West 20.7 mph - N/A   Clear
6:53 AM 43.0 °F 33.5 °F 34.0 °F 71% 29.64 in 10.0 mi West 24.2 mph 32.2 mph N/A   Clear
7:53 AM 45.0 °F 35.6 °F 28.9 °F 53% 29.66 in 10.0 mi WNW 27.6 mph 39.1 mph N/A   Clear
8:53 AM 46.0 °F 36.9 °F 30.9 °F 56% 29.68 in 10.0 mi West 28.8 mph 34.5 mph N/A   Clear
9:53 AM 46.0 °F 36.9 °F 33.1 °F 61% 29.71 in 10.0 mi West 28.8 mph 42.6 mph N/A   Mostly Cloudy
10:53 AM 41.0 °F 29.7 °F 36.0 °F 82% 29.75 in 10.0 mi West 31.1 mph 47.2 mph 0.00 in Rain Light Rain
11:20 AM 42.8 °F 32.7 °F 37.4 °F 81% 29.72 in 10.0 mi West 27.6 mph 35.7 mph 0.00 in Rain Light Rain
11:53 AM 42.1 °F 32.1 °F 35.1 °F 76% 29.75 in 10.0 mi West 25.3 mph 35.7 mph 0.00 in   Mostly Cloudy
12:04 PM 42.8 °F 32.7 °F 35.6 °F 76% 29.71 in 10.0 mi West 27.6 mph 32.2 mph N/A   Mostly Cloudy
12:53 PM 44.1 °F 34.0 °F 30.9 °F 60% 29.75 in 10.0 mi West 29.9 mph 40.3 mph N/A   Mostly Cloudy
1:44 PM 41.0 °F 28.5 °F 30.2 °F 65% 29.76 in 10.0 mi WNW 39.1 mph 47.2 mph 0.00 in   Overcast
1:53 PM 39.9 °F 28.0 °F 30.0 °F 68% 29.81 in 10.0 mi WNW 32.2 mph 44.9 mph 0.00 in   Overcast
2:53 PM 39.9 °F 26.8 °F 28.9 °F 65% 29.84 in 10.0 mi WNW 40.3 mph 51.8 mph N/A   Overcast
3:53 PM 39.0 °F 26.1 °F 28.9 °F 67% 29.88 in 10.0 mi WNW 36.8 mph 47.2 mph 0.01 in   Overcast
4:53 PM 42.1 °F 30.6 °F 28.0 °F 58% 29.89 in 10.0 mi WNW 34.5 mph 51.8 mph 0.00 in   Mostly Cloudy
5:53 PM 39.0 °F 26.4 °F 30.0 °F 70% 29.94 in 10.0 mi WNW 34.5 mph 46.0 mph N/A   Overcast
6:53 PM 37.0 °F 24.1 °F 30.0 °F 76% 29.98 in 10.0 mi NW 32.2 mph 44.9 mph N/A   Overcast
7:53 PM 37.0 °F 25.4 °F 30.9 °F 79% 30.01 in 10.0 mi WNW 25.3 mph 33.4 mph N/A   Overcast
8:53 PM 37.0 °F 25.4 °F 30.9 °F 79% 30.04 in 10.0 mi WNW 25.3 mph 34.5 mph N/A   Overcast
9:53 PM 37.0 °F 25.6 °F 30.9 °F 79% 30.06 in 10.0 mi WNW 24.2 mph 35.7 mph N/A   Overcast
10:53 PM 37.0 °F 27.7 °F 30.9 °F 79% 30.08 in 10.0 mi WNW 16.1 mph - N/A   Overcast
11:53 PM 37.0 °F 27.0 °F 30.0 °F 76% 30.07 in 10.0 mi WNW 18.4 mph - N/A   Overcast